Weather History for Leesburg, FL

Change the Weather History Date:

Wednesday, July 31, 2013

  Actual Average Record
Temperature  
Mean Temperature 83 °F -  
Max Temperature 93 °F 90 °F 99 °F (1999)
Min Temperature 73 °F 72 °F 67 °F (1972)
Cooling Degree Days 18    
Growing Degree Days 33 (Base 50)    
Moisture  
Dew Point 74 °F    
Average Humidity 80    
Maximum Humidity 94    
Minimum Humidity 45    
Precipitation  
Precipitation 1.83 in - - ()
Sea Level Pressure  
Sea Level Pressure 30.10 in    
Wind  
Wind Speed 5 mph (SSE)    
Max Wind Speed 17 mph    
Max Gust Speed 23 mph    
Visibility 8 miles    
Events Fog , Rain , Thunderstorm    
Averages and records for this station are not official NWS values.
T = Trace of Precipitation, MM = Missing Value Source: NWS Daily Summary

Daily Weather History Graph

Daily Weather History Graph

Search for Another Location

Airport:

Trip Planner

Search our weather history database for the weather conditions in past years. The results will help you decide how hot, cold, wet, or windy it might be!

Date:

Astronomy

Jul. 31, 2013 Rise Set
Actual Time 6:47 AM EDT 8:18 PM EDT
Civil Twilight 6:22 AM EDT 8:44 PM EDT
Nautical Twilight 5:51 AM EDT 9:15 PM EDT
Astronomical Twilight 5:19 AM EDT 9:46 PM EDT
Moon 1:42 AM EDT (7/31) 3:32 PM EDT (7/31)
Length of Visible Light 14h 22m
Length of Day
13h 30m
Waning Crescent, 32% of the Moon is Illuminated
Jul 31
Waning Crescent
Aug 6
New
Aug 14
First Quarter
Aug 20
Full
Aug 28
Last Quarter

Hourly Weather History & Observations

Time (EDT) Temp. Heat Index Dew Point Humidity Pressure Visibility Wind Dir Wind Speed Gust Speed Precip Events Conditions
12:04 AM 82.4 °F 89.5 °F 75.2 °F 79% 30.16 in 10.0 mi South 4.6 mph - N/A   Mostly Cloudy
12:53 AM 81.0 °F 87.9 °F 77.0 °F 88% 30.15 in 10.0 mi Variable 3.5 mph - N/A   Clear
1:53 AM 81.0 °F 86.7 °F 75.0 °F 82% 30.13 in 10.0 mi South 8.1 mph - N/A   Clear
2:53 AM 80.1 °F 85.4 °F 75.9 °F 87% 30.11 in 10.0 mi SW 3.5 mph - N/A   Clear
3:53 AM 79.0 °F - 75.9 °F 90% 30.10 in 10.0 mi Calm Calm - N/A   Partly Cloudy
4:53 AM 78.1 °F - 75.9 °F 93% 30.10 in 10.0 mi Calm Calm - N/A   Partly Cloudy
5:53 AM 78.1 °F - 75.9 °F 93% 30.11 in 10.0 mi Calm Calm - N/A   Clear
6:34 AM 80.6 °F 86.2 °F 75.2 °F 84% 30.12 in 10.0 mi Calm Calm - N/A   Mostly Cloudy
6:53 AM 79.0 °F - 75.9 °F 90% 30.12 in 9.0 mi Calm Calm - N/A   Overcast
7:48 AM 80.6 °F 87.1 °F 77.0 °F 89% 30.14 in 10.0 mi Calm Calm - N/A   Scattered Clouds
7:53 AM 80.1 °F 85.8 °F 77.0 °F 90% 30.13 in 10.0 mi South 4.6 mph - N/A   Scattered Clouds
8:53 AM 81.0 °F 87.9 °F 77.0 °F 88% 30.14 in 10.0 mi SSE 5.8 mph - N/A   Partly Cloudy
9:53 AM 82.9 °F 91.8 °F 77.0 °F 82% 30.16 in 10.0 mi SE 3.5 mph - N/A   Partly Cloudy
10:53 AM 84.9 °F 95.3 °F 77.0 °F 77% 30.16 in 10.0 mi South 3.5 mph - N/A   Clear
11:53 AM 87.1 °F 95.4 °F 73.9 °F 65% 30.14 in 10.0 mi SSE 3.5 mph - N/A   Clear
12:53 PM 89.1 °F 97.0 °F 73.0 °F 59% 30.13 in 10.0 mi South 5.8 mph - N/A   Clear
1:53 PM 91.0 °F 96.6 °F 70.0 °F 50% 30.10 in 10.0 mi South 4.6 mph - N/A   Clear
2:53 PM 91.9 °F 97.4 °F 70.0 °F 48% 30.06 in 10.0 mi South 5.8 mph - N/A   Clear
3:53 PM 93.0 °F 97.9 °F 69.1 °F 45% 30.04 in 10.0 mi ESE 4.6 mph - N/A   Clear
4:53 PM 89.1 °F 97.0 °F 73.0 °F 59% 30.04 in 10.0 mi SE 13.8 mph - N/A   Partly Cloudy
5:53 PM 88.0 °F 95.6 °F 73.0 °F 61% 30.03 in 10.0 mi SE 10.4 mph - N/A   Clear
6:53 PM 86.0 °F 92.2 °F 72.0 °F 63% 30.03 in 10.0 mi ESE 6.9 mph - N/A   Clear
7:07 PM 86.0 °F 93.4 °F 73.4 °F 66% 30.04 in 10.0 mi NNW 5.8 mph - N/A Thunderstorm Partly Cloudy
7:38 PM 84.2 °F 90.9 °F 73.4 °F 70% 30.05 in 10.0 mi NNW 10.4 mph - N/A   Overcast
7:53 PM 82.0 °F 86.7 °F 72.0 °F 71% 30.05 in 10.0 mi North 13.8 mph - N/A Thunderstorm Overcast
8:13 PM 78.8 °F - 73.4 °F 83% 30.09 in 2.0 mi West 17.3 mph 21.9 mph 0.14 in Rain , Thunderstorm Heavy Thunderstorms and Rain
8:18 PM 78.8 °F - 71.6 °F 78% 30.09 in 1.5 mi West 13.8 mph 21.9 mph 0.24 in Rain , Thunderstorm Heavy Thunderstorms and Rain
8:23 PM 77.0 °F - 71.6 °F 83% 30.09 in 2.0 mi West 11.5 mph 20.7 mph 0.27 in Rain , Thunderstorm Light Thunderstorms and Rain
8:28 PM 77.0 °F - 71.6 °F 83% 30.11 in 1.5 mi WSW 15.0 mph 21.9 mph 0.36 in Rain , Thunderstorm Heavy Thunderstorms and Rain
8:36 PM 75.2 °F - 73.4 °F 94% 30.13 in 0.8 mi South 16.1 mph 21.9 mph 0.63 in Rain , Thunderstorm Heavy Thunderstorms and Rain
8:43 PM 73.4 °F - 71.6 °F 94% 30.12 in 0.5 mi South 16.1 mph 23.0 mph 1.09 in Fog , Rain , Thunderstorm Heavy Thunderstorms and Rain
8:53 PM 73.9 °F - 72.0 °F 93% 30.10 in 0.8 mi SE 13.8 mph - 1.49 in Rain , Thunderstorm Heavy Thunderstorms and Rain
8:58 PM 73.4 °F - 71.6 °F 94% 30.10 in 1.0 mi ESE 9.2 mph - 0.12 in Rain , Thunderstorm Heavy Thunderstorms and Rain
9:11 PM 75.2 °F - 71.6 °F 89% 30.09 in 3.0 mi East 5.8 mph - 0.22 in Rain , Thunderstorm Heavy Thunderstorms and Rain
9:53 PM 75.9 °F - 73.0 °F 91% 30.10 in 6.0 mi East 8.1 mph - 0.28 in Rain , Thunderstorm Rain
10:23 PM 75.2 °F - 73.4 °F 94% 30.08 in 10.0 mi ESE 4.6 mph - 0.04 in Rain Light Rain
10:53 PM 77.0 °F - 73.9 °F 90% 30.09 in 10.0 mi Calm Calm - 0.06 in Rain Light Rain
11:53 PM 77.0 °F - 75.0 °F 94% 30.09 in 10.0 mi Calm Calm - 0.00 in   Clear